• In Germany
  • List of Countries
  • For 7 days
  • Water Temperature
  • Satellite Maps
  • Weather Map
  • Weather Widgets
  • user-avatar
    Login

    Hourly Weather Bugojno

    Today, 21 September, Thursday

    Time Temperature Precipitation Wind Pressure Humidity
    00:00 +8°C° 0.4 mm 3 mps 710 mmHg 94%
    01:00 +8°C° 0 mm 2 mps 710 mmHg 93%
    02:00 +8°C° 0.5 mm 2 mps 710 mmHg 93%
    03:00 +8°C° 0.5 mm 3 mps 710 mmHg 93%
    04:00 +8°C° 0.5 mm 3 mps 710 mmHg 92%
    05:00 +8°C° 0.2 mm 3 mps 710 mmHg 92%
    06:00 +8°C° 0.2 mm 3 mps 711 mmHg 91%
    07:00 +9°C° 0 mm 3 mps 711 mmHg 89%
    08:00 +10°C° 0.1 mm 3 mps 711 mmHg 84%
    09:00 +11°C° 0.1 mm 3 mps 712 mmHg 78%
    10:00 +12°C° 0.1 mm 3 mps 712 mmHg 72%
    11:00 +13°C° 0.1 mm 3 mps 712 mmHg 68%
    12:00 +13°C° 0.1 mm 3 mps 712 mmHg 63%
    13:00 +14°C° 0 mm 4 mps 712 mmHg 60%
    14:00 +14°C° 0.1 mm 3 mps 712 mmHg 61%
    15:00 +14°C° 0.1 mm 3 mps 712 mmHg 63%
    16:00 +13°C° 0.1 mm 3 mps 712 mmHg 64%
    17:00 +13°C° 0 mm 2 mps 712 mmHg 71%
    18:00 +11°C° 0 mm 1 mps 712 mmHg 78%
    19:00 +9°C° 0 mm 1 mps 712 mmHg 85%
    20:00 +9°C° 0 mm 1 mps 712 mmHg 86%
    21:00 +9°C° 0 mm 1 mps 713 mmHg 86%
    22:00 +9°C° 0 mm 1 mps 713 mmHg 87%
    23:00 +8°C° 0 mm 1 mps 713 mmHg 87%

    Tomorrow, 22 September, Friday

    Time Temperature Precipitation Wind Pressure Humidity
    00:00 +8°C° 0 mm 1 mps 713 mmHg 87%
    01:00 +8°C° 0 mm 1 mps 713 mmHg 87%
    02:00 +8°C° 0 mm 1 mps 713 mmHg 87%
    03:00 +8°C° 0 mm 1 mps 713 mmHg 87%
    04:00 +7°C° 0 mm 1 mps 713 mmHg 88%
    05:00 +8°C° 0 mm 1 mps 713 mmHg 85%
    06:00 +9°C° 0 mm 1 mps 713 mmHg 82%
    07:00 +10°C° 0 mm 1 mps 714 mmHg 79%
    08:00 +12°C° 0 mm 1 mps 714 mmHg 69%
    09:00 +15°C° 0 mm 1 mps 714 mmHg 59%
    10:00 +17°C° 0 mm 2 mps 715 mmHg 48%
    11:00 +18°C° 0 mm 2 mps 715 mmHg 47%
    12:00 +18°C° 0 mm 2 mps 715 mmHg 46%
    13:00 +19°C° 0 mm 2 mps 715 mmHg 44%
    14:00 +19°C° 0 mm 2 mps 715 mmHg 47%
    15:00 +19°C° 0 mm 2 mps 714 mmHg 49%
    16:00 +18°C° 0 mm 2 mps 714 mmHg 52%
    17:00 +16°C° 0 mm 1 mps 714 mmHg 61%
    18:00 +14°C° 0 mm 1 mps 714 mmHg 70%
    19:00 +10°C° 0 mm 0 mps 714 mmHg 79%
    20:00 +10°C° 0 mm 0 mps 714 mmHg 79%
    21:00 +11°C° 0 mm 1 mps 715 mmHg 80%
    22:00 +11°C° 0 mm 1 mps 715 mmHg 81%
    23:00 +10°C° 0 mm 1 mps 715 mmHg 80%

    Day after tomorrow, 23 September, Saturday

    Time Temperature Precipitation Wind Pressure Humidity
    00:00 +10°C° 0 mm 1 mps 715 mmHg 79%
    01:00 +10°C° 0 mm 1 mps 715 mmHg 79%
    02:00 +10°C° 0 mm 1 mps 715 mmHg 79%
    03:00 +10°C° 0 mm 1 mps 715 mmHg 80%
    04:00 +10°C° 0 mm 1 mps 714 mmHg 80%
    05:00 +11°C° 0 mm 1 mps 715 mmHg 78%
    06:00 +12°C° 0 mm 1 mps 715 mmHg 76%
    07:00 +12°C° 0 mm 0 mps 715 mmHg 73%
    08:00 +14°C° 0 mm 0 mps 715 mmHg 67%
    09:00 +16°C° 0 mm 0 mps 715 mmHg 60%
    10:00 +19°C° 0 mm 0 mps 716 mmHg 53%
    11:00 +21°C° 0 mm 1 mps 715 mmHg 52%
    12:00 +21°C° 0 mm 1 mps 715 mmHg 52%
    13:00 +21°C° 0 mm 1 mps 715 mmHg 51%
    14:00 +21°C° 0 mm 1 mps 714 mmHg 54%
    15:00 +21°C° 0 mm 1 mps 714 mmHg 57%
    16:00 +20°C° 0 mm 1 mps 714 mmHg 61%
    17:00 +18°C° 0 mm 1 mps 714 mmHg 69%
    18:00 +15°C° 0 mm 1 mps 713 mmHg 78%
    19:00 +13°C° 0 mm 1 mps 713 mmHg 86%
    20:00 +13°C° 0 mm 1 mps 713 mmHg 87%
    21:00 +12°C° 0 mm 1 mps 713 mmHg 89%
    22:00 +12°C° 0 mm 1 mps 713 mmHg 90%
    23:00 +12°C° 0 mm 1 mps 713 mmHg 91%

    24 September, Sunday

    Time Temperature Precipitation Wind Pressure Humidity
    00:00 +12°C° 0 mm 1 mps 713 mmHg 91%
    01:00 +11°C° 0 mm 1 mps 713 mmHg 92%
    02:00 +11°C° 0 mm 1 mps 713 mmHg 92%
    03:00 +11°C° 0 mm 1 mps 713 mmHg 92%
    04:00 +11°C° 0 mm 1 mps 713 mmHg 92%
    05:00 +12°C° 0 mm 1 mps 713 mmHg 89%
    06:00 +12°C° 0 mm 1 mps 713 mmHg 87%
    07:00 +13°C° 0 mm 1 mps 713 mmHg 84%
    08:00 +15°C° 0 mm 1 mps 713 mmHg 75%
    09:00 +19°C° 0 mm 1 mps 713 mmHg 66%
    10:00 +21°C° 0 mm 1 mps 714 mmHg 57%
    11:00 +21°C° 0.1 mm 1 mps 714 mmHg 56%
    12:00 +22°C° 0.1 mm 1 mps 713 mmHg 54%
    13:00 +23°C° 0.1 mm 2 mps 713 mmHg 53%
    14:00 +22°C° 0.6 mm 1 mps 713 mmHg 60%
    15:00 +21°C° 0.6 mm 1 mps 713 mmHg 66%
    16:00 +20°C° 0.6 mm 1 mps 713 mmHg 73%
    17:00 +18°C° 0.5 mm 1 mps 712 mmHg 79%
    18:00 +15°C° 0.5 mm 0 mps 712 mmHg 85%
    19:00 +13°C° 0.5 mm 0 mps 712 mmHg 91%
    20:00 +13°C° 0.3 mm 0 mps 712 mmHg 91%
    21:00 +14°C° 0.3 mm 1 mps 712 mmHg 92%
    22:00 +14°C° 0.3 mm 1 mps 712 mmHg 93%
    23:00 +13°C° 0.1 mm 1 mps 712 mmHg 93%

    25 September, Monday

    Time Temperature Precipitation Wind Pressure Humidity
    00:00 +13°C° 0.1 mm 1 mps 712 mmHg 93%
    01:00 +13°C° 0.1 mm 1 mps 712 mmHg 93%
    02:00 +13°C° 0 mm 1 mps 712 mmHg 92%
    03:00 +12°C° 0 mm 1 mps 712 mmHg 91%
    04:00 +12°C° 0 mm 1 mps 712 mmHg 91%
    05:00 +13°C° 0 mm 1 mps 712 mmHg 89%
    06:00 +13°C° 0 mm 1 mps 712 mmHg 87%
    07:00 +14°C° 0 mm 1 mps 712 mmHg 85%
    08:00 +16°C° 0 mm 1 mps 712 mmHg 76%
    09:00 +19°C° 0 mm 1 mps 713 mmHg 67%
    10:00 +21°C° 0 mm 1 mps 713 mmHg 58%
    11:00 +22°C° 0.2 mm 1 mps 713 mmHg 57%
    12:00 +21°C° 0.2 mm 2 mps 713 mmHg 56%
    13:00 +23°C° 0.2 mm 2 mps 713 mmHg 55%
    14:00 +21°C° 0.7 mm 2 mps 713 mmHg 60%
    15:00 +21°C° 0.7 mm 1 mps 713 mmHg 66%
    16:00 +20°C° 0.7 mm 1 mps 713 mmHg 71%
    17:00 +19°C° 0.4 mm 1 mps 713 mmHg 77%
    18:00 +15°C° 0.4 mm 0 mps 713 mmHg 83%
    19:00 +13°C° 0.4 mm 0 mps 713 mmHg 88%
    20:00 +13°C° 0 mm 0 mps 713 mmHg 89%
    21:00 +13°C° 0 mm 0 mps 713 mmHg 90%
    22:00 +13°C° 0 mm 1 mps 713 mmHg 91%
    23:00 +13°C° 0 mm 1 mps 713 mmHg 90%

    26 September, Tuesday

    Time Temperature Precipitation Wind Pressure Humidity
    00:00 +13°C° 0 mm 1 mps 713 mmHg 90%
    01:00 +12°C° 0 mm 1 mps 712 mmHg 89%
    02:00 +12°C° 0 mm 1 mps 712 mmHg 89%
    03:00 +12°C° 0 mm 1 mps 712 mmHg 88%
    04:00 +12°C° 0 mm 1 mps 712 mmHg 88%
    05:00 +12°C° 0 mm 1 mps 712 mmHg 86%
    06:00 +13°C° 0 mm 1 mps 713 mmHg 85%
    07:00 +13°C° 0 mm 0 mps 713 mmHg 83%
    08:00 +16°C° 0 mm 1 mps 713 mmHg 75%
    09:00 +19°C° 0 mm 1 mps 713 mmHg 67%
    10:00 +22°C° 0 mm 1 mps 714 mmHg 59%
    11:00 +22°C° 0 mm 1 mps 714 mmHg 56%
    12:00 +23°C° 0 mm 1 mps 713 mmHg 53%
    13:00 +23°C° 0 mm 1 mps 713 mmHg 50%
    14:00 +23°C° 0.4 mm 1 mps 713 mmHg 56%
    15:00 +22°C° 0.4 mm 1 mps 713 mmHg 62%
    16:00 +21°C° 0.4 mm 1 mps 713 mmHg 69%
    17:00 +19°C° 0.5 mm 1 mps 713 mmHg 75%
    18:00 +16°C° 0.5 mm 1 mps 713 mmHg 81%
    19:00 +15°C° 0.5 mm 1 mps 713 mmHg 86%
    20:00 +14°C° 0.2 mm 1 mps 713 mmHg 87%
    21:00 +14°C° 0.2 mm 1 mps 713 mmHg 88%
    22:00 +14°C° 0.2 mm 1 mps 713 mmHg 89%
    23:00 +13°C° 0 mm 1 mps 713 mmHg 90%
    Show more